[[{"header":{"parameterUnit":"m.s-1","parameterCategory":1,"la1":30.2991,"la2":30.254,"lo1":-89.0895,"lo2":-89.0444,"dy":0.0017,"dx":0.0017,"nx":28,"ny":28,"refTime":"2024-03-26T03:00:00:Z","depth":0,"parameterNumber":2,"parameterNumberName":"U-component_of_WINDS"},"data":[0,0,0,0,0,0,0,0,0,0,0,0,0,0,0,0,0,0,0,0,0,0,0,0,0,0,0,0,0,0,0,0,0,0,0,0,0,0,0,0,0,0,0,0,0,0,0,0,0,0,0,0,0,0,0,0,0,0,1.1051,1.1052,0,1.1104,1.1104,1.1105,1.112,1.112,1.112,1.1119,1.1173,1.1175,1.1177,0,0,0,0,0,0,0,0,0,0,0,0,0,1.0966,1.0967,1.1051,1.1052,1.1052,1.1103,1.1104,1.1105,1.112,1.112,1.112,1.1119,1.1173,1.1175,1.1177,0,0,0,0,0,0,0,0,0,0,0,0,0,1.1009,1.0968,1.1051,1.1066,1.1068,1.1103,1.1104,1.1105,1.112,1.112,1.1119,1.1119,1.1172,1.1175,1.1177,1.1201,0,0,1.1185,1.1186,0,0,0,0,0,0,0,0,1.1007,1.1012,1.1063,1.1065,1.1067,1.1105,1.1094,1.1137,1.112,1.11,1.1119,1.1119,1.1151,1.1155,1.1166,1.1204,1.1206,1.1185,1.1187,1.1188,1.1188,0,0,0,0,0,0,0,1.1004,1.101,1.1072,1.1064,1.1067,1.1071,1.1077,1.1102,1.1127,1.1102,1.1103,1.1109,1.1152,1.1163,1.1167,1.1207,1.1185,1.1187,1.1189,1.119,1.1269,1.127,0,0,0,0,0,0,1.0998,1.1007,1.107,1.1073,1.1035,1.1073,1.1079,1.1093,1.1127,1.1132,1.111,1.111,1.1159,1.1164,1.1169,1.1201,1.1188,1.119,1.1192,1.1269,1.1269,1.127,0,0,0,0,0,0,1.0996,1.1003,1.1068,1.1041,1.1049,1.1075,1.109,1.1095,1.1106,1.1133,1.1137,1.1117,1.1159,1.1166,1.1194,1.1203,1.1191,1.1194,1.1268,1.1269,1.127,1.1263,0,0,0,0,0,0,1.0993,1.1003,1.1011,1.1041,1.1051,1.1091,1.1091,1.1096,1.111,1.1111,1.1141,1.1145,1.1159,1.119,1.1196,1.1206,1.1196,1.1267,1.1268,1.1269,1.1263,1.1264,1.1265,0,0,0,0,0,1.099,1.1007,1.1012,1.1019,1.1062,1.1091,1.1097,1.1113,1.1111,1.112,1.1138,1.1144,1.1201,1.1192,1.12,1.1211,1.1267,1.1268,1.1269,1.1262,1.1264,1.1265,0,0,0,0,0,0,1.0977,1.1011,1.1017,1.1043,1.1064,1.1094,1.1106,1.1113,1.1136,1.1135,1.1154,1.1161,1.1188,1.1202,1.1192,1.1237,1.1234,1.1237,1.1226,1.1228,1.1229,1.1225,1.1198,0,0,0,0,0,1.0978,1.0998,1.1027,1.1047,1.1058,1.108,1.1093,1.1104,1.1127,1.1136,1.1155,1.1177,1.12,1.1215,1.1237,1.1265,1.1273,1.1277,1.1278,1.1278,1.1281,1.1298,1.1301,1.1274,1.1274,1.1274,0,0,1.0978,1.0999,1.1011,1.1045,1.1063,1.1084,1.1087,1.1109,1.1126,1.1139,1.1167,1.1182,1.1208,1.1237,1.125,1.1249,1.129,1.128,1.128,1.1282,1.13,1.1302,1.1305,1.1275,1.1275,1.1275,0,0,1.099,1.1008,1.1028,1.1046,1.1073,1.1088,1.1093,1.1122,1.1133,1.1161,1.1172,1.1192,1.1231,1.125,1.1264,1.1286,1.1293,1.1293,1.1298,1.1315,1.1317,1.1319,1.1328,1.1331,1.1295,1.1295,1.1295,0,1.0988,1.102,1.1037,1.1059,1.1075,1.1089,1.111,1.1126,1.1159,1.117,1.1169,1.1219,1.1238,1.1272,1.1277,1.1288,1.1295,1.1289,1.1315,1.1317,1.132,1.1328,1.1331,1.1295,1.1295,1.1295,1.1295,0,1.1016,1.1038,1.1052,1.1084,1.1101,1.1122,1.1144,1.1159,1.1169,1.1185,1.1214,1.1237,1.1265,1.1274,1.1284,1.131,1.1309,1.1311,1.1309,1.1322,1.133,1.1334,1.1295,1.1295,1.1295,1.1295,0,0,1.102,1.1063,1.1067,1.1083,1.1115,1.1133,1.1156,1.1184,1.1197,1.122,1.124,1.1274,1.1277,1.1294,1.1306,1.1321,1.1338,1.1321,1.1322,1.1324,1.137,1.1369,1.1372,1.1343,1.1344,1.1345,1.1369,0,1.1036,1.1077,1.1095,1.1128,1.115,1.1164,1.1185,1.1207,1.1223,1.1244,1.1262,1.1286,1.1288,1.1298,1.1313,1.1333,1.1348,1.1331,1.1363,1.1364,1.1356,1.1376,1.1374,1.1395,1.1372,1.1372,1.1373,0,1.1061,1.1084,1.112,1.1151,1.1161,1.1179,1.1207,1.1227,1.1253,1.1264,1.1284,1.1295,1.1321,1.1318,1.1355,1.1343,1.1357,1.1369,1.137,1.1374,1.1369,1.1381,1.1402,1.1406,1.1378,1.1378,1.1377,0,1.1061,1.1102,1.1129,1.1142,1.1178,1.1191,1.1207,1.1233,1.1249,1.1274,1.1285,1.1313,1.1328,1.1349,1.1369,1.1364,1.1404,1.1402,1.1415,1.1414,1.1422,1.1421,1.1446,1.1431,1.1431,1.1431,1.1431,0,1.1077,1.1099,1.113,1.1146,1.1171,1.1192,1.1216,1.1233,1.1257,1.1278,1.1292,1.1312,1.1337,1.136,1.1375,1.1404,1.1411,1.1421,1.1425,1.142,1.1418,1.1429,1.1428,1.1432,1.1432,1.1431,1.1431,0,1.1081,1.1103,1.1133,1.1166,1.1175,1.1192,1.1221,1.1238,1.1256,1.1282,1.129,1.1317,1.1345,1.1367,1.1403,1.1414,1.1445,1.1449,1.1436,1.1438,1.145,1.1449,1.1483,1.1489,1.1469,1.1469,1.1469,0,1.109,1.1107,1.1143,1.1158,1.1174,1.1198,1.1215,1.1237,1.1254,1.1287,1.1301,1.133,1.1355,1.1399,1.1423,1.1452,1.1457,1.1467,1.1461,1.1456,1.1458,1.1457,1.1459,1.1467,1.1468,1.1468,1.1468,0,1.1105,1.1115,1.1139,1.1167,1.1188,1.1211,1.1235,1.1247,1.1273,1.1292,1.1321,1.1341,1.1379,1.1408,1.144,1.1457,1.1467,1.147,1.1474,1.1469,1.1461,1.1466,1.1438,1.1468,1.1468,1.1468,1.1468,1.1468,1.1112,1.1128,1.1156,1.1183,1.1204,1.1226,1.1244,1.1265,1.1289,1.1322,1.1334,1.1364,1.1393,1.1436,1.1454,1.1479,1.1479,1.1486,1.1487,1.1489,1.1489,1.1457,1.1485,1.1485,1.1485,1.1485,1.1485,0,1.1127,1.1147,1.1171,1.1205,1.1226,1.1234,1.1262,1.1279,1.1306,1.1331,1.1356,1.1391,1.142,1.1447,1.1477,1.1492,1.1498,1.15,1.1499,1.1503,1.1486,1.1479,1.1495,1.1495,1.1495,1.1495,1.1495,1.1495,1.1138,1.1167,1.1181,1.1221,1.124,1.127,1.1285,1.1306,1.1327,1.1365,1.139,1.1407,1.1434,1.1467,1.1495,1.1502,1.1513,1.1514,1.1522,1.1505,1.1504,1.1503,1.1497,1.1516,1.1516,1.1537,1.1537,1.1538]},{"header":{"parameterUnit":"m.s-1","parameterCategory":1,"la1":30.2991,"la2":30.254,"lo1":-89.0895,"lo2":-89.0444,"dy":0.0017,"dx":0.0017,"nx":28,"ny":28,"refTime":"2024-03-26T03:00:00:Z","depth":0,"parameterNumber":3,"parameterNumberName":"V-component_of_WINDS"},"data":[0,0,0,0,0,0,0,0,0,0,0,0,0,0,0,0,0,0,0,0,0,0,0,0,0,0,0,0,0,0,0,0,0,0,0,0,0,0,0,0,0,0,0,0,0,0,0,0,0,0,0,0,0,0,0,0,0,0,-4.4854,-4.4854,0,-4.49,-4.4901,-4.4901,-4.4879,-4.4878,-4.4877,-4.4876,-4.4919,-4.4921,-4.4924,0,0,0,0,0,0,0,0,0,0,0,0,0,-4.4744,-4.4746,-4.4854,-4.4854,-4.4855,-4.49,-4.4901,-4.4901,-4.4879,-4.4878,-4.4877,-4.4875,-4.4918,-4.4921,-4.4924,0,0,0,0,0,0,0,0,0,0,0,0,0,-4.4791,-4.4747,-4.4854,-4.485,-4.485,-4.49,-4.4901,-4.4901,-4.488,-4.4878,-4.4876,-4.4875,-4.4918,-4.4921,-4.4924,-4.498,0,0,-4.4934,-4.4936,0,0,0,0,0,0,0,0,-4.4788,-4.4795,-4.485,-4.485,-4.485,-4.4882,-4.4878,-4.4927,-4.488,-4.4868,-4.4876,-4.4874,-4.4908,-4.4912,-4.4924,-4.4982,-4.4983,-4.4935,-4.4937,-4.4938,-4.4939,0,0,0,0,0,0,0,-4.4785,-4.4793,-4.4872,-4.485,-4.4851,-4.4845,-4.4849,-4.4887,-4.4897,-4.4869,-4.4868,-4.4874,-4.4908,-4.4921,-4.4925,-4.4984,-4.4935,-4.4938,-4.494,-4.4941,-4.5091,-4.5093,0,0,0,0,0,0,-4.4782,-4.479,-4.487,-4.4873,-4.4815,-4.4848,-4.4853,-4.4874,-4.4897,-4.4899,-4.4875,-4.4873,-4.4916,-4.4921,-4.4927,-4.4994,-4.4938,-4.4941,-4.4943,-4.5089,-4.5091,-4.5093,0,0,0,0,0,0,-4.478,-4.479,-4.4869,-4.4832,-4.4841,-4.4852,-4.4875,-4.4875,-4.4889,-4.4901,-4.4903,-4.4887,-4.4915,-4.4922,-4.4967,-4.4995,-4.4943,-4.4946,-4.5087,-4.509,-4.5092,-4.5129,0,0,0,0,0,0,-4.4777,-4.4789,-4.4811,-4.4832,-4.4843,-4.4909,-4.4876,-4.4878,-4.4895,-4.4892,-4.4913,-4.4915,-4.4914,-4.4962,-4.4971,-4.4999,-4.4948,-4.5084,-4.5088,-4.5091,-4.5125,-4.5133,-4.5139,0,0,0,0,0,-4.4773,-4.4818,-4.4812,-4.4822,-4.4871,-4.4911,-4.4917,-4.4917,-4.4898,-4.4919,-4.4928,-4.4914,-4.4991,-4.4967,-4.4976,-4.5006,-4.5082,-4.5087,-4.5091,-4.5122,-4.5131,-4.5139,0,0,0,0,0,0,-4.4797,-4.482,-4.4814,-4.4867,-4.4888,-4.4907,-4.4934,-4.4926,-4.4951,-4.4947,-4.4945,-4.495,-4.4997,-4.5006,-4.4979,-4.5062,-4.5034,-4.504,-4.5054,-4.5063,-4.507,-4.5066,-4.4951,0,0,0,0,0,-4.4809,-4.4841,-4.4859,-4.4904,-4.4915,-4.4923,-4.494,-4.4939,-4.4959,-4.4967,-4.4979,-4.4998,-4.5027,-4.5045,-4.5072,-4.5127,-4.5131,-4.5152,-4.5159,-4.5165,-4.517,-4.5201,-4.521,-4.5108,-4.5108,-4.5108,0,0,-4.4833,-4.485,-4.487,-4.491,-4.4925,-4.4958,-4.493,-4.4965,-4.4989,-4.4972,-4.5016,-4.5026,-4.5047,-4.5098,-4.512,-4.5106,-4.52,-4.517,-4.5175,-4.5177,-4.5206,-4.5216,-4.5225,-4.5111,-4.5111,-4.511,0,0,-4.4893,-4.4909,-4.4949,-4.4966,-4.4991,-4.4997,-4.5006,-4.5028,-4.5034,-4.5079,-4.5067,-4.5095,-4.5144,-4.5161,-4.5175,-4.5245,-4.5233,-4.5253,-4.529,-4.532,-4.5328,-4.5335,-4.536,-4.5369,-4.5259,-4.5259,-4.5259,0,-4.4919,-4.4969,-4.497,-4.5007,-4.5026,-4.5014,-4.5054,-4.507,-4.5102,-4.5114,-4.5099,-4.5162,-4.5175,-4.523,-4.5248,-4.526,-4.527,-4.5251,-4.5327,-4.5334,-4.534,-4.5364,-4.5374,-4.5261,-4.5261,-4.5261,-4.5261,0,-4.5,-4.5035,-4.5064,-4.5098,-4.5119,-4.5158,-4.5164,-4.5186,-4.5183,-4.519,-4.5236,-4.5253,-4.5283,-4.5296,-4.5293,-4.5351,-4.5342,-4.5327,-4.5298,-4.5353,-4.5375,-4.5384,-4.5265,-4.5264,-4.5263,-4.5262,0,0,-4.5075,-4.5111,-4.5122,-4.5138,-4.5165,-4.5191,-4.523,-4.5262,-4.5281,-4.5303,-4.5335,-4.5378,-4.5365,-4.5382,-4.538,-4.5407,-4.5462,-4.5388,-4.5389,-4.5402,-4.5528,-4.5539,-4.555,-4.5455,-4.5457,-4.5458,-4.5526,0,-4.5138,-4.5206,-4.521,-4.5272,-4.5304,-4.5295,-4.5328,-4.5349,-4.5357,-4.5385,-4.5393,-4.5425,-4.5404,-4.5415,-4.5441,-4.545,-4.5487,-4.5445,-4.5484,-4.5486,-4.5479,-4.5562,-4.5573,-4.5637,-4.5535,-4.5537,-4.5538,0,-4.5219,-4.5247,-4.5313,-4.5338,-4.5352,-4.5382,-4.5413,-4.544,-4.5463,-4.5467,-4.5488,-4.5483,-4.5522,-4.5493,-4.5547,-4.5518,-4.5534,-4.5542,-4.5544,-4.5547,-4.5515,-4.5567,-4.5657,-4.5666,-4.5552,-4.555,-4.5549,0,-4.5268,-4.5322,-4.5369,-4.5382,-4.5413,-4.5434,-4.5448,-4.5469,-4.5489,-4.5515,-4.5528,-4.5558,-4.5575,-4.5598,-4.5601,-4.558,-4.5655,-4.5626,-4.5659,-4.566,-4.5675,-4.5674,-4.5768,-4.5686,-4.5686,-4.5686,-4.5686,0,-4.5337,-4.5378,-4.5391,-4.542,-4.5465,-4.5469,-4.5514,-4.5526,-4.5546,-4.5576,-4.5569,-4.5598,-4.5601,-4.5631,-4.5634,-4.5678,-4.5685,-4.5689,-4.5689,-4.569,-4.5689,-4.57,-4.5695,-4.5688,-4.5688,-4.5687,-4.5687,0,-4.5398,-4.5409,-4.5459,-4.5485,-4.5493,-4.5525,-4.5547,-4.5574,-4.5583,-4.5622,-4.5631,-4.5644,-4.5678,-4.5685,-4.5725,-4.5727,-4.578,-4.5775,-4.5773,-4.5772,-4.5805,-4.5802,-4.5909,-4.5924,-4.5832,-4.5833,-4.5834,0,-4.5441,-4.5473,-4.5503,-4.5524,-4.5539,-4.5573,-4.5594,-4.5599,-4.5621,-4.5651,-4.5675,-4.571,-4.5737,-4.5793,-4.5805,-4.5836,-4.5832,-4.5868,-4.5837,-4.5836,-4.5833,-4.5831,-4.5834,-4.5874,-4.5875,-4.5875,-4.5876,0,-4.5517,-4.5522,-4.5553,-4.5587,-4.5613,-4.5639,-4.5664,-4.5681,-4.569,-4.5715,-4.5752,-4.5773,-4.5816,-4.585,-4.5881,-4.5894,-4.5887,-4.5886,-4.5895,-4.5896,-4.5893,-4.5895,-4.5789,-4.5883,-4.5883,-4.5882,-4.5882,-4.5881,-4.557,-4.5599,-4.5625,-4.5661,-4.5681,-4.5705,-4.5733,-4.5746,-4.5777,-4.5814,-4.5815,-4.5855,-4.5878,-4.592,-4.5936,-4.5966,-4.5955,-4.5968,-4.5971,-4.5975,-4.5978,-4.5889,-4.5972,-4.5972,-4.5972,-4.5971,-4.5971,0,-4.5646,-4.5663,-4.5696,-4.5733,-4.5761,-4.5755,-4.5782,-4.5806,-4.5842,-4.5866,-4.5894,-4.5937,-4.597,-4.5987,-4.602,-4.6041,-4.6039,-4.605,-4.6048,-4.6051,-4.5986,-4.5975,-4.6051,-4.6051,-4.6051,-4.6051,-4.6051,-4.6051,-4.5689,-4.5737,-4.5745,-4.5803,-4.582,-4.586,-4.5877,-4.5899,-4.5919,-4.5967,-4.5996,-4.6007,-4.6028,-4.6063,-4.6094,-4.6098,-4.611,-4.6123,-4.6125,-4.6064,-4.6056,-4.6048,-4.6037,-4.6126,-4.6126,-4.6188,-4.6188,-4.6189]}]]